Regional Weather Roundup
Issued by NWS

Home | Current Version | Previous Version | Graphics & Text | Print | Product List | Glossary On
Versions: 1 2 3 4 5 6 7 8 9 10 11 12 13 14 15 16 17 18 19 20 21 22 23 24 25 26 27 28 29 30 31 32 33 34 35 36 37 38 39 40 41 42 43 44 45 46 47 48 49 50
000
ASUS43 KIND 282309
RWRIN

WEATHER ROUNDUP FOR INDIANA
NATIONAL WEATHER SERVICE INDIANAPOLIS IN
700 PM EDT TUE JUL 28 2015

NOTE: "FAIR" INDICATES FEW OR NO CLOUDS BELOW 12,000 FEET WITH NO
SIGNIFICANT WEATHER AND/OR OBSTRUCTIONS TO VISIBILITY.

* - STATION DOES NOT REPORT WEATHER SUCH AS PRECIPITATION OR FOG.

+ - STATION NOT QUALITY CONTROLLED BY THE NATIONAL WEATHER SERVICE.
    USE DATA WITH CAUTION...ESPECIALLY DEWPOINT AND RELATIVE
    HUMIDITY OBSERVATIONS.

INZ001>003-010>013-019-020-290000-
NORTHWEST INDIANA

CITY           SKY/WX    TMP DP  RH WIND       PRES   REMARKS
GARY /AIRPORT/ PTSUNNY   90  72  55 SE13      29.90  HX  96
KNOX *+        SUNNY     86  70  58 SE7       29.90S
LA PORTE +     SUNNY     87  73  61 SE7       29.91S
MICHIGAN CITY+ SUNNY     86  68  54 SE5       29.91R
MONTICELLO +   MOSUNNY   88  73  61 CALM      29.90F HX  96
RENSSELAER +   MOSUNNY   86  72  62 S8        29.90F
VALPARAISO     SUNNY     88  71  57 SE8       29.91S

$$

LMZ046-743>745-290000-
SOUTHERN LAKE MICHIGAN

STATION/POSITION TIME  TEMP    WIND        PRES    WAVE
                       AIR SEA DIR/SP/G            HT
                 (UTC) (F)     (DEG/KT/KT) (MB)    (FT)
BURNS HARBOR     2200   88     110/ 16/ 20 1011.9
MICHIGAN CITY    2200   86      90/ 13/ 17   N/A
5NW MICH CITY    2300   83 76  170/  8/ 10   N/A     1

$$

INZ004-005-014>016-021>024-290000-
NORTH CENTRAL INDIANA

CITY           SKY/WX    TMP DP  RH WIND       PRES   REMARKS
ELKHART        MOSUNNY   88  66  48 E12       29.92F
GOSHEN         MOSUNNY   87  69  54 E9        29.93F
LOGANSPORT +   MOSUNNY   88  66  48 E6        29.91F
PERU/GRISSOM   MOSUNNY   87  72  61 E7        29.91F
ROCHESTER +    MOSUNNY   90  72  55 SE7       29.91F HX  96
SOUTH BEND     MOSUNNY   88  68  51 SE12      29.91F
WARSAW +       MOSUNNY   86  70  58 CALM      29.93F

$$

INZ006>009-017-018-025>027-290000-
NORTHEAST INDIANA

CITY           SKY/WX    TMP DP  RH WIND       PRES   REMARKS
ANGOLA *+      SUNNY     88  66  48 SE6       29.96F
AUBURN +       MOSUNNY   88  63  42 E5        29.95F
FORT WAYNE     PTSUNNY   87  69  54 E7        29.94F
HUNTINGTON +   MOSUNNY   87  69  55 SE3       29.92F

$$

INZ028-029-035-036-043>045-051>053-290000-
WEST CENTRAL INDIANA

CITY           SKY/WX    TMP DP  RH WIND       PRES   REMARKS
CRAWFORDSVL +  MOSUNNY   87  66  50 CALM      29.89R
GREENCASTLE +  SUNNY     88  66  48 CALM      29.93F
LAFAYETTE      MOSUNNY   85  74  69 SE5       29.90F
TERRE HAUTE    MOSUNNY   90  74  59 SE5       29.90F HX  99

$$

INZ030>032-037>040-046>048-054>057-064-065-290000-
CENTRAL INDIANA

CITY           SKY/WX    TMP DP  RH WIND       PRES   REMARKS
COLUMBUS       MOSUNNY   82  68  61 NE17      29.94S
FRANKFORT +    MOSUNNY   86  75  69 CALM      29.94F HX  95
GREENWOOD *+   MOSUNNY   84  72  65 SE7       29.93F
INDIANAPOLIS   PTSUNNY   87  72  60 SE12      29.91F
-EAGLE CREEK   MOSUNNY   86  73  65 E8        29.91F
KOKOMO *+      MOSUNNY   86  72  62 E3        29.92F
MARION +       MOSUNNY   87  69  56 E7        29.93F HAZE
MT COMFORT *+  MOSUNNY   84  82  94 SE5       29.94F HX 101
SHELBYVILLE    PTSUNNY   86  76  71 CALM      29.93F HX  96
ZIONSVILLE +   MOSUNNY   89  73  60 SE7       29.93F HX  96

$$

INZ033-034-041-042-049-050-058-059-290000-
EAST CENTRAL INDIANA

CITY           SKY/WX    TMP DP  RH WIND       PRES   REMARKS
MUNCIE         PTSUNNY   86  72  62 E7        29.94F

$$

INZ060-061-067>069-081>083-085>088-290000-
SOUTHWEST INDIANA

CITY           SKY/WX    TMP DP  RH WIND       PRES   REMARKS
EVANSVILLE     SUNNY     90  77  65 NW3       29.93R HX 103
HUNTINGBURG *+ SUNNY     91  77  62 W3        29.92F HX 105
WASHINGTON +   LGT RAIN  79  70  73 CALM      29.91F

$$

INZ062-063-066-070>080-084-089>092-290000-
SOUTH CENTRAL AND SOUTHEAST INDIANA

CITY           SKY/WX    TMP DP  RH WIND       PRES   REMARKS
BLOOMINGTON    SUNNY     89  74  60 CALM      29.93F HX  98
MADISON *+     SUNNY     90  68  48 CALM      29.96F
NORTH VERNON + PTSUNNY   90  70  51 CALM      29.95F HX  95
SEYMOUR +      MOSUNNY   91  75  59 CALM      29.93F HX 102

$$




USA.gov is the U.S. government's official web portal to all federal, state and local government web resources and services.